Location: Ch�teau-Arnoux
(44.0814°N, 6.0027°E)
Time: 06:01:16
(UTC+00:00)

Cosmos 1484 Rocket - Pass Details

Date: 15 November 2019
Orbit: 507 x 559 km, 97.4° (Epoch: 07 December)

Event Time Altitude Azimuth Distance (km) Brightness Sun altitude
Rises 04:20:30 0° 17° (NNE) 2,743 6.6 -23.3°
Reaches altitude 10° 04:22:42 10° 23° (NNE) 1,848 5.7 -22.9°
Maximum altitude 04:26:35 48° 99° (E) 736 3.8 -22.2°
Drops below altitude 10° 04:30:27 10° 174° (S) 1,840 5.6 -21.5°
Sets 04:32:38 0° 180° (S) 2,730 6.4 -21.2°
